Temp
18 18 18 18 18 18 19 19 19 19 19 19 19 19 19 20 20 20 20 20 20 20 20 20 21 21 21 21 21 22 22 21 21 20 19 17 17 18 19 20 20 21 21 22 22 22 22 22 23 23 24 24 23 22 22 22 22 22 22 21 20 20 20 19 19 19 19 19 18 18 18 18 17 17 16 15 16 16 15 15 16 16 15 15 14 14 14 13
18 18 18 18 18 19 19 19 19 19 19 19 19 19 19 20 20 20 20 20 20 20 20 21 21 21 21 21 21 22 22 21 21 19 18 18 18 19 20 20 20 21 21 22 22 21 21 21 22 22 23 23 23 23 22 22 22 22 21 20 20 20 19 19 19 18 18 19 18 18 18 18 17 17 16 16 16 16 15 15 15 15 15 13 13 13 13 12
18 18 18 18 19 19 19 19 19 19 19 19 19 19 19 19 20 20 20 20 20 20 21 21 21 21 21 20 20 21 22 21 21 19 19 19 19 20 20 20 21 21 21 22 22 21 21 22 21 21 22 23 23 23 23 22 21 21 21 20 19 19 18 18 18 18 18 18 18 18 18 18 17 16 16 16 16 16 15 16 15 15 15 13 12 11 12 12
18 18 18 19 19 19 19 19 19 19 19 19 19 19 19 19 20 20 20 20 20 20 21 21 21 21 21 20 20 21 21 21 20 19 19 19 19 20 20 20 21 21 21 22 22 22 22 21 21 22 23 23 23 22 22 21 21 21 21 20 19 19 18 17 17 17 17 18 18 18 18 18 17 16 16 16 16 16 15 16 16 16 16 14 11 10 11 11
18 19 19 19 19 19 19 19 19 19 19 19 19 19 19 19 20 20 20 20 20 20 21 21 21 21 21 20 20 20 21 21 20 19 19 19 20 20 20 21 21 21 21 22 22 22 22 21 21 22 23 22 22 22 21 21 21 20 19 19 19 19 19 17 17 16 17 18 18 18 17 17 17 16 16 16 16 16 16 16 17 16 16 15 12 10 10 10
19 19 19 19 19 19 19 19 19 19 19 19 19 19 19 19 19 19 20 20 20 20 20 21 21 21 21 21 20 20 20 21 19 19 20 19 20 20 21 21 21 21 22 22 22 22 22 22 22 22 22 22 22 22 21 21 21 20 19 18 18 18 18 17 16 16 16 17 17 17 17 16 16 16 16 16 16 16 17 17 17 16 15 15 12 10 10 10
18 18 19 19 19 19 19 19 19 19 19 19 19 19 19 19 19 19 20 20 20 20 21 21 20 21 21 21 20 20 20 20 19 19 20 19 20 21 21 21 21 22 22 21 21 22 22 22 22 22 22 22 21 21 20 20 20 20 19 18 18 18 17 16 16 16 16 17 16 16 16 16 16 16 16 16 16 16 16 16 15 14 15 15 13 11 10 10
18 18 19 19 19 19 19 19 19 19 19 19 19 19 19 19 20 20 20 20 20 20 21 20 20 20 21 21 20 20 20 19 19 19 19 20 20 20 21 21 21 22 22 21 20 21 21 22 21 21 22 21 21 20 19 20 20 20 19 18 18 17 16 16 16 15 15 16 16 15 16 16 16 15 15 16 16 16 16 15 14 14 14 15 15 14 11 10
18 19 19 19 19 19 19 19 19 19 19 19 19 19 19 19 20 20 20 20 20 21 20 20 20 20 20 20 20 20 20 19 19 19 19 20 20 20 21 21 21 22 21 21 20 20 21 21 21 21 21 21 21 20 19 20 20 19 19 18 18 17 16 15 15 15 15 16 15 15 15 15 15 15 15 16 16 16 16 16 16 15 15 15 15 15 12 10
19 19 19 19 19 19 19 19 19 19 19 19 19 19 20 20 20 20 20 21 21 21 20 20 20 20 20 19 20 21 20 19 19 19 19 19 20 20 21 20 21 21 21 20 20 20 20 20 20 20 21 20 20 19 18 19 19 18 18 18 18 17 16 16 16 16 15 15 15 15 15 15 15 15 16 17 17 17 16 16 16 16 16 15 15 14 12 11
19 19 19 19 19 19 19 19 19 19 19 19 19 20 20 20 20 20 20 20 21 21 20 20 20 20 20 19 20 20 19 19 19 19 19 19 19 20 20 20 20 21 20 20 19 19 19 19 18 19 20 20 19 19 18 18 18 18 18 18 17 17 17 16 16 16 15 15 15 15 14 14 14 14 16 17 16 17 17 16 16 16 16 15 14 14 12 11
19 19 19 19 19 19 19 19 19 19 19 19 20 20 20 20 20 20 20 20 20 21 20 20 20 20 19 19 20 19 19 19 19 19 19 19 19 19 19 19 20 20 20 19 19 19 19 19 19 20 20 19 19 19 18 17 17 18 18 17 17 16 16 16 16 16 16 16 15 15 16 16 14 15 18 16 15 17 17 16 16 16 16 15 15 15 13 12
19 19 19 19 19 19 19 19 19 19 19 19 19 20 20 20 20 20 20 20 21 21 20 20 20 20 20 19 19 18 18 19 18 19 19 19 19 19 19 19 19 20 20 19 19 19 20 19 19 19 18 18 19 18 17 17 17 18 17 17 17 16 17 17 16 16 16 16 15 15 17 19 16 17 19 16 15 16 16 16 16 15 15 15 15 15 14 12
19 19 19 19 19 19 19 19 19 19 19 19 19 19 20 20 20 20 20 20 21 21 21 21 21 20 20 19 19 18 19 18 18 19 19 19 19 20 19 19 19 20 20 19 20 20 20 20 19 18 17 18 18 17 17 17 17 17 17 17 16 17 18 16 16 16 16 15 15 15 17 19 18 18 18 15 15 16 16 16 15 15 15 14 14 15 15 13
19 19 19 19 19 19 19 19 19 19 20 20 20 20 20 20 20 20 20 20 21 21 21 21 21 20 20 19 18 18 19 18 18 18 19 19 19 19 19 19 19 19 20 20 20 20 20 19 19 19 17 16 17 17 17 17 17 17 18 19 17 17 18 16 16 16 16 16 15 16 16 18 18 18 17 16 15 16 16 16 16 16 15 14 14 14 15 14
18 19 19 19 19 19 19 19 19 20 20 20 20 20 20 20 20 20 20 20 20 21 21 21 21 20 20 19 18 18 18 18 19 18 18 18 18 18 18 19 20 19 19 20 20 20 20 19 18 18 17 17 17 18 18 18 18 17 18 19 18 18 18 17 16 15 16 16 15 15 16 17 18 18 17 15 15 15 16 16 16 16 16 15 14 14 15 14
18 18 19 18 18 19 19 19 19 20 20 20 20 20 20 20 20 20 20 20 20 20 20 20 20 20 19 19 18 18 18 18 19 19 19 18 18 18 18 18 19 19 19 19 19 19 19 19 18 17 18 18 18 18 19 19 20 18 18 18 18 18 17 17 17 15 15 15 15 15 15 16 18 17 16 16 16 15 15 16 16 16 16 15 14 15 15 15
18 18 18 18 19 19 19 19 20 20 20 20 20 21 20 20 20 20 20 21 20 20 20 20 20 21 19 18 18 18 18 18 18 19 19 18 18 18 17 18 18 18 19 19 19 19 19 18 18 18 18 18 18 19 19 20 19 19 18 18 18 17 17 17 17 15 14 14 15 14 14 15 16 16 15 17 16 15 15 15 15 16 16 15 15 15 15 15
18 18 18 18 19 19 19 20 20 20 20 20 20 21 21 20 20 19 20 20 20 20 20 19 18 20 19 18 18 18 18 18 18 19 18 18 18 18 18 17 17 18 19 19 19 19 19 19 18 19 19 19 19 19 19 19 19 19 18 17 17 17 16 17 17 15 14 14 14 14 14 15 16 16 15 17 17 15 15 15 15 15 15 15 15 15 14 13
18 19 19 19 19 19 20 20 20 20 20 20 20 20 21 20 20 20 19 18 17 17 17 17 17 18 18 18 17 18 18 18 18 18 18 18 18 18 18 18 18 18 18 19 20 18 18 19 19 19 19 19 18 18 18 18 17 17 17 16 16 16 15 16 16 14 13 14 15 15 15 15 16 16 15 16 16 15 14 15 15 15 15 15 14 13 12 12
19 19 19 19 19 20 20 20 20 20 20 20 20 19 19 18 19 19 17 16 15 15 16 16 16 17 17 17 17 17 17 18 17 17 18 18 18 18 19 19 19 19 19 19 19 17 17 19 19 18 17 17 17 17 17 17 17 17 16 16 15 15 15 15 15 14 13 14 16 16 14 14 15 15 14 15 15 15 14 15 15 15 15 14 13 12 11 11
19 19 19 19 20 20 20 20 20 20 20 21 20 17 16 16 16 16 16 17 17 15 16 16 17 17 17 17 17 16 16 18 18 17 18 18 18 19 19 19 19 19 19 19 19 18 18 19 18 16 16 16 16 16 16 16 16 16 15 15 15 15 15 15 14 13 13 14 15 16 14 14 14 14 14 14 15 15 14 15 15 14 14 12 12 11 11 11
19 19 19 20 20 20 20 20 20 20 20 20 19 16 15 16 16 15 15 17 17 16 16 17 17 18 17 17 17 16 17 18 18 17 16 17 19 18 18 18 18 18 18 19 19 18 19 19 16 15 16 16 16 16 15 15 15 15 15 15 15 15 15 15 14 13 13 14 14 14 13 13 13 14 14 13 14 14 14 15 14 13 13 11 11 11 11 11
19 20 20 20 20 20 21 20 20 19 19 19 18 16 16 16 16 15 16 17 18 17 16 16 17 17 17 17 17 17 17 17 17 17 16 16 17 17 17 17 18 18 18 18 18 18 19 17 14 15 15 15 16 15 15 15 15 15 15 14 15 15 14 15 14 13 14 14 13 13 14 14 14 14 14 13 14 14 14 14 13 11 11 11 11 11 10 10
20 20 20 20 21 21 21 20 20 19 18 18 17 16 16 16 16 16 17 18 19 18 17 16 16 17 17 17 17 16 16 17 16 16 15 15 16 17 17 16 17 18 18 17 17 18 18 14 13 15 15 15 15 15 15 15 14 15 14 13 14 14 14 14 13 13 14 14 14 13 14 15 15 14 14 14 14 14 14 14 12 11 11 11 11 10 10 10
20 20 20 20 21 21 21 20 19 18 18 17 17 17 16 16 16 16 17 19 19 18 18 17 17 17 17 17 17 16 17 17 15 15 15 14 14 15 17 17 17 17 17 17 17 17 15 13 13 14 14 15 15 14 15 14 14 15 13 12 12 13 14 13 13 13 14 14 13 13 13 14 14 15 14 13 14 14 14 13 11 11 11 10 10 10 9 9
20 20 20 20 21 21 21 20 19 19 19 17 17 17 17 16 16 16 17 19 19 18 18 18 18 17 17 17 17 17 19 18 16 15 15 14 14 15 17 17 17 17 16 16 17 16 14 13 14 14 14 14 14 15 14 13 14 15 12 11 13 14 13 13 12 12 12 12 12 12 13 12 13 14 13 13 14 13 12 11 11 10 10 10 10 9 9 9
20 20 20 20 20 20 20 19 19 18 18 17 17 17 17 17 16 16 19 20 19 18 18 18 18 17 17 17 17 17 18 18 17 16 14 14 15 15 16 17 16 16 16 16 17 15 14 15 15 14 14 14 14 14 13 13 15 14 11 11 12 12 12 12 11 12 11 11 12 13 12 13 13 13 12 12 13 12 10 10 10 10 10 10 9 9 9 9
20 20 20 21 20 20 19 19 18 17 17 17 17 16 16 16 16 17 20 20 19 18 17 17 18 17 17 17 17 17 17 17 18 16 14 14 15 15 16 15 15 16 15 15 16 15 14 13 13 13 14 14 13 13 12 14 14 12 11 11 11 11 11 11 11 11 11 11 13 13 12 13 14 14 12 12 12 10 10 10 10 10 10 9 9 8 8 8
20 20 20 21 20 20 19 19 18 18 17 17 17 16 16 16 17 19 20 19 19 18 17 18 18 17 17 17 17 17 16 17 17 16 15 15 15 15 14 13 14 15 14 14 15 15 13 11 11 12 13 13 12 12 11 12 12 12 11 12 12 11 10 10 10 11 11 12 13 13 12 13 14 13 12 11 11 10 10 10 9 9 9 9 8 8 8 7
20 20 20 20 20 19 19 19 18 18 17 17 17 16 16 18 19 20 19 18 19 18 18 18 17 16 16 16 16 16 16 16 15 16 17 16 15 15 15 14 15 15 15 15 15 14 13 12 12 12 11 11 12 12 11 11 11 12 12 12 13 12 11 11 11 11 12 14 13 12 13 13 14 13 11 10 11 10 10 10 9 9 8 8 7 7 7 6
19 19 19 19 19 19 19 18 18 18 18 17 16 16 18 20 19 19 19 18 18 18 17 17 16 16 15 15 15 15 15 15 15 15 16 15 15 14 14 14 14 15 16 16 15 16 14 13 11 11 11 11 12 13 12 11 11 12 12 13 13 13 13 13 13 13 13 13 13 12 13 13 13 12 11 10 11 10 10 9 9 8 8 7 7 6 6 6
19 19 19 18 18 18 18 18 18 18 18 17 17 18 20 20 19 18 18 19 18 17 16 15 15 15 14 15 15 14 14 15 15 15 14 15 15 14 13 13 13 15 16 15 15 16 15 13 11 12 12 10 11 14 14 13 12 12 13 13 13 13 13 13 13 13 13 13 12 12 13 13 12 11 10 11 11 10 9 8 8 7 7 6 6 6 6 6
19 19 19 18 18 18 18 18 18 18 18 18 19 20 20 19 18 17 17 18 17 16 16 15 15 15 15 15 15 14 15 16 15 15 15 15 16 15 14 13 12 13 14 14 15 15 15 15 13 13 13 11 11 13 13 13 13 12 13 13 13 13 13 12 13 13 13 13 12 12 12 13 12 11 11 11 10 8 7 7 7 7 6 6 5 5 5 5
19 18 18 18 18 18 18 18 18 18 18 18 20 20 19 18 18 17 16 16 15 15 15 14 14 16 16 15 14 13 15 16 15 15 16 16 15 15 14 13 12 12 13 15 15 14 14 16 13 11 10 10 11 11 10 11 13 12 12 12 13 13 13 12 12 12 12 12 11 12 12 11 11 11 10 10 8 7 7 7 7 7 6 6 5 5 5 5
18 18 18 17 18 18 18 18 18 18 18 19 20 19 18 17 16 16 15 14 14 14 15 15 15 17 17 16 16 15 14 15 15 15 16 15 14 13 13 12 10 11 13 14 14 13 14 15 13 10 10 10 10 10 9 11 13 12 12 13 12 11 12 12 11 11 11 11 11 12 12 10 10 11 10 8 7 7 7 7 7 7 6 6 5 5 4 5
18 18 17 17 18 18 18 18 18 18 18 20 20 18 16 15 14 13 13 12 13 12 14 16 17 16 16 16 16 15 14 14 15 15 16 15 14 13 13 12 10 11 11 12 14 14 13 14 13 11 12 10 8 8 9 9 11 12 12 12 11 10 11 11 11 11 11 10 11 12 12 10 9 10 9 8 7 7 6 6 6 6 6 5 5 4 4 4
18 17 17 17 18 18 18 18 18 19 19 19 19 16 15 14 12 11 10 11 12 13 14 16 16 16 15 15 15 15 14 15 15 15 15 15 15 13 13 12 11 10 10 10 13 13 12 13 13 11 11 10 8 9 11 9 9 11 11 10 11 11 12 11 11 11 10 10 10 11 12 11 10 10 9 7 6 6 6 6 5 5 5 4 4 4 4 4
17 17 17 18 18 18 19 19 18 19 19 19 18 16 14 13 11 9 9 9 11 13 14 14 14 15 15 14 14 14 14 14 14 14 15 15 15 13 12 12 11 11 10 10 11 12 12 13 13 11 10 10 10 11 13 11 10 9 10 10 11 11 11 11 11 11 10 10 9 10 11 11 9 8 7 6 5 5 5 5 5 5 4 4 3 3 3 3
17 18 18 18 18 19 19 19 19 19 18 17 16 16 14 12 11 9 7 9 11 12 13 14 13 14 14 14 14 14 14 14 14 14 15 15 15 13 11 10 11 11 9 10 10 11 12 12 12 12 10 11 12 12 12 12 11 11 11 11 11 11 11 11 11 10 10 10 10 9 10 9 8 7 6 5 5 5 5 5 4 4 3 3 3 3 2 3
17 18 18 18 18 19 19 19 18 17 17 16 15 14 13 12 11 10 8 8 10 11 11 12 13 13 13 13 13 13 13 13 13 14 15 14 14 14 10 7 8 9 9 11 11 11 11 11 11 11 11 12 13 11 10 10 11 11 12 12 11 11 11 10 10 9 9 10 9 9 9 8 7 7 6 5 5 5 5 4 4 3 3 2 2 2 2 2
17 18 18 18 18 18 19 18 16 15 16 15 13 12 12 11 11 11 10 9 10 11 11 11 12 12 12 12 13 13 13 13 13 14 15 14 13 13 9 6 6 7 9 11 11 10 10 10 10 10 11 11 11 9 8 9 9 10 11 11 11 11 11 11 10 9 9 9 8 8 8 7 6 6 5 5 5 4 4 3 3 2 2 2 2 2 2 2
17 18 18 18 18 18 19 18 16 15 14 12 11 11 10 10 11 11 10 11 11 11 11 12 12 12 12 12 12 12 13 13 13 14 14 14 12 10 7 6 7 8 9 10 10 9 9 10 10 10 11 11 10 9 8 9 10 11 11 11 10 10 10 10 9 8 8 8 8 8 7 6 6 5 5 5 5 4 3 3 2 2 2 2 2 2 1 1
16 16 17 18 19 19 18 17 16 16 14 11 12 11 10 10 11 11 11 11 11 11 12 12 12 11 12 12 11 12 13 13 14 13 13 14 12 7 6 6 7 8 9 9 9 9 10 10 10 10 10 11 11 11 10 10 10 11 11 10 9 9 9 8 8 7 7 8 8 7 7 7 6 5 5 4 4 3 3 2 2 1 1 1 1 1 1 0
16 16 17 17 17 17 16 15 15 16 15 14 14 13 12 11 10 9 10 10 10 10 11 11 11 11 11 11 11 12 12 12 13 13 12 13 11 7 6 6 6 7 8 7 7 7 9 10 10 10 10 10 10 11 11 10 10 10 10 9 9 9 9 8 8 7 7 7 6 7 7 7 7 6 4 3 3 2 2 2 1 1 1 1 1 0 -0 -1
17 17 17 17 16 15 14 13 14 15 15 14 15 14 13 13 11 8 9 10 10 10 10 11 10 11 11 11 11 12 12 12 12 12 12 12 12 9 6 6 6 6 6 6 6 7 9 9 9 10 10 9 10 10 10 9 9 9 9 9 8 8 8 8 7 7 7 6 6 6 6 6 6 4 3 2 2 2 1 1 1 1 1 1 -0 -1 -1 -1
17 16 15 16 16 15 14 13 13 14 14 14 15 14 13 14 13 10 10 10 10 9 10 11 10 11 12 11 11 12 12 12 12 12 11 11 11 10 7 5 6 6 6 6 7 7 8 8 9 9 9 9 9 9 9 8 8 8 8 8 8 7 7 7 7 7 7 6 5 6 5 5 5 3 2 2 1 1 1 1 0 0 0 -0 -1 -2 -2 -2
15 15 13 13 15 16 15 14 13 13 14 14 13 13 13 14 13 12 11 11 10 10 11 12 11 11 11 11 11 11 11 12 12 11 11 10 10 10 8 7 6 6 6 7 7 7 8 8 8 8 8 9 8 8 8 8 7 8 8 8 8 7 7 7 7 7 6 5 5 5 4 4 4 2 1 1 1 1 1 0 0 0 -0 -1 -2 -2 -2 -3
14 14 12 11 14 14 13 12 12 13 14 14 13 13 13 13 13 12 12 12 12 11 11 13 12 11 11 11 11 11 11 11 11 11 10 9 9 9 9 8 7 6 6 7 7 7 7 8 8 7 8 8 8 8 8 7 8 8 7 6 6 7 7 7 6 5 5 5 5 4 4 4 2 1 1 1 1 1 0 -0 0 -0 -2 -2 -2 -3 -3 -4
15 15 14 13 14 13 12 12 13 14 14 13 14 13 12 13 13 12 11 12 13 12 10 12 12 10 10 11 10 11 11 10 10 10 9 8 8 8 9 9 7 6 7 7 7 7 7 7 7 7 7 8 8 9 9 8 8 7 5 4 5 6 5 5 5 5 4 4 4 4 4 4 2 1 1 1 0 0 -0 -1 -0 -1 -3 -3 -3 -3 -4 -4
14 14 14 15 15 13 13 13 13 15 15 13 13 13 12 12 12 11 11 10 11 12 11 11 11 9 10 10 10 11 10 8 9 8 7 7 7 7 8 7 6 6 7 7 7 7 7 7 7 7 6 7 8 9 9 8 8 6 4 4 4 4 4 4 4 4 4 4 4 3 3 2 1 1 1 0 -0 -1 -1 -1 -1 -2 -3 -3 -3 -4 -4 -5
14 13 13 15 15 13 13 14 14 15 14 12 12 12 12 12 11 11 12 11 9 10 10 10 10 9 10 11 10 9 8 7 7 6 5 5 5 6 6 6 6 6 6 6 6 6 6 6 6 6 6 7 9 8 7 7 7 6 4 3 3 4 3 4 4 4 4 3 3 2 1 1 0 0 -0 -1 -1 -1 -2 -1 -2 -3 -4 -3 -3 -4 -5 -5
Height
826 826 826 826 826 825 825 824 824 823 823 823 822 822 822 822 821 821 820 820 820 819 818 818 816 816 815 814 814 813 814 814 812 810 810 814 814 812 811 810 809 808 808 807 806 805 803 803 802 802 802 802 803 804 805 805 806 809 816 823 826 828 828 826 825 824 822 825 826 825 824 826 829 828 828 829 829 829 830 829 828 826 827 827 828 828 829 832
827 827 827 827 826 826 825 825 824 824 823 823 822 822 822 821 821 821 820 820 819 819 818 817 816 816 814 814 813 812 813 813 812 811 813 814 813 812 811 810 809 808 808 807 806 806 806 805 803 803 804 805 805 805 806 806 808 812 818 824 827 827 826 824 823 823 823 823 824 824 823 824 826 826 828 829 828 829 830 829 828 827 827 828 828 829 830 831
827 827 827 827 827 826 826 825 824 824 823 823 822 822 822 821 821 821 820 820 819 819 818 817 816 815 814 813 812 811 812 812 813 813 814 814 813 811 810 810 809 809 808 808 807 806 807 805 804 804 806 807 806 805 808 808 810 812 817 825 826 824 824 825 823 823 823 822 823 824 823 824 824 826 828 828 827 829 828 826 826 826 826 827 828 828 829 830
828 828 828 827 827 827 826 825 825 824 823 823 823 822 822 821 821 820 820 819 819 818 817 817 816 814 814 813 812 812 811 813 816 816 815 814 812 811 810 810 809 809 809 808 807 806 805 805 804 805 806 809 807 807 810 811 812 813 817 823 823 822 824 825 824 823 823 821 822 822 823 824 824 826 826 826 828 828 825 822 821 821 821 824 827 827 828 829
828 828 828 828 828 827 826 826 825 824 824 823 823 822 822 821 821 820 820 819 818 818 817 816 815 814 813 812 812 812 812 818 819 815 815 813 812 811 810 810 809 809 808 807 806 805 804 804 804 805 807 810 810 810 813 811 811 817 820 821 821 821 822 824 824 824 823 821 822 823 824 824 823 825 824 824 826 822 818 817 817 817 817 819 824 826 827 829
829 829 829 828 828 827 826 826 825 825 824 823 823 823 822 821 821 820 820 819 818 818 817 816 815 813 813 812 813 811 814 820 818 814 814 812 811 811 809 809 809 808 807 807 805 804 804 803 805 808 809 811 812 812 814 811 811 818 822 821 821 820 821 823 823 824 823 821 822 823 824 824 824 824 822 822 819 814 813 814 814 815 816 817 820 824 827 828
829 829 829 829 828 827 826 826 826 825 825 824 823 823 822 822 821 820 820 819 818 817 817 816 814 813 812 812 812 812 814 817 815 814 813 812 811 810 809 809 808 807 807 806 805 804 804 804 806 808 809 812 813 813 814 813 812 817 820 820 821 821 821 823 823 824 824 822 823 824 824 824 824 823 821 818 813 810 812 812 813 814 814 816 818 822 824 825
830 830 829 829 828 827 827 826 826 825 825 824 824 823 823 822 821 820 819 819 818 817 816 815 814 813 812 812 813 814 815 815 814 814 813 812 811 810 809 808 807 807 806 806 806 805 805 807 808 808 811 813 812 813 815 815 815 817 819 820 820 822 822 823 823 824 824 823 823 825 824 823 823 823 820 814 808 809 811 811 812 813 814 815 816 819 822 823
830 830 829 829 829 828 827 826 826 826 825 824 824 823 823 822 821 820 819 819 818 817 816 815 814 813 813 812 813 816 816 814 814 814 813 812 811 810 809 808 807 807 806 807 806 805 805 808 809 808 811 812 811 814 816 817 818 818 818 818 819 821 822 823 823 824 824 823 824 825 824 823 821 823 818 808 805 806 807 809 810 812 813 814 815 817 819 821
830 830 830 829 829 828 827 827 826 825 825 824 824 823 822 822 821 820 819 818 817 817 816 814 814 813 813 812 814 818 816 814 814 814 813 812 811 811 809 808 808 807 807 807 806 806 807 808 808 807 809 811 812 815 817 817 818 817 817 818 819 820 821 822 823 823 824 823 823 823 823 821 821 824 816 803 803 804 805 808 809 810 812 813 815 816 817 819
831 830 830 830 829 829 828 827 826 825 825 824 823 822 822 821 820 820 819 818 817 816 816 814 813 813 813 813 815 817 815 814 814 814 814 813 811 811 810 809 809 808 808 807 807 807 808 808 807 807 809 812 813 816 817 816 817 817 817 818 819 820 820 821 822 822 823 822 821 822 821 821 823 823 811 802 803 803 804 807 807 809 810 812 814 815 816 818
831 831 830 830 829 829 828 827 826 825 824 824 823 822 821 821 820 819 818 817 817 816 815 814 813 813 813 814 815 815 814 815 814 814 814 813 812 811 810 810 809 809 808 808 808 808 808 807 807 808 811 812 814 816 816 816 817 816 818 821 821 822 822 820 820 820 821 820 820 821 818 816 822 815 801 802 805 803 805 806 807 808 809 811 813 814 816 816
831 831 830 830 829 828 828 827 826 825 824 823 822 821 821 820 819 818 818 817 816 816 815 814 814 813 814 815 815 815 815 815 814 814 813 813 812 811 811 810 810 810 809 809 808 808 808 807 807 809 810 812 815 816 816 816 817 817 819 821 823 826 822 817 818 820 820 819 818 821 817 808 811 806 797 803 806 804 806 806 807 808 809 811 812 814 815 816
831 831 830 830 829 828 827 826 825 824 824 823 822 821 820 819 819 818 817 816 816 815 815 814 814 813 814 816 816 815 815 815 814 814 813 813 811 811 810 810 810 810 809 809 809 808 808 808 807 808 811 813 815 816 817 818 817 819 821 821 826 826 819 816 818 819 820 819 817 820 820 808 801 801 798 802 804 804 805 805 807 808 809 811 812 813 814 815
831 831 830 829 828 828 827 826 825 824 823 822 821 820 820 819 818 817 816 816 815 815 814 814 813 813 815 817 816 815 815 815 814 814 813 812 811 811 810 810 810 810 809 809 808 808 808 808 808 810 813 814 815 816 819 821 820 821 821 820 824 823 819 818 818 818 818 818 818 819 819 810 801 798 797 799 803 803 803 804 806 806 807 810 812 813 814 815
832 831 830 829 828 827 827 825 824 823 822 821 820 820 819 818 817 816 816 815 814 814 813 813 813 814 817 818 816 815 816 815 815 814 813 813 812 811 810 810 809 809 809 808 808 808 808 808 810 812 814 815 817 818 819 821 820 822 822 819 820 819 819 819 817 818 818 818 820 819 818 812 801 796 797 800 801 802 803 803 805 805 805 808 811 813 814 815
831 831 830 829 828 827 826 825 824 822 821 820 819 818 817 817 816 815 815 814 813 813 813 814 812 813 817 818 816 817 816 815 815 814 813 813 812 811 811 809 808 808 808 808 808 808 808 809 812 813 814 815 816 817 820 821 818 820 822 820 819 819 820 818 816 818 818 819 819 819 820 813 801 796 799 801 800 802 803 803 805 805 805 808 811 813 813 814
831 831 830 829 828 827 826 825 823 822 820 819 817 817 816 816 815 815 814 813 812 812 813 813 813 816 820 818 817 818 816 815 814 813 813 812 812 811 811 810 809 809 808 809 809 809 809 810 813 814 815 815 815 816 819 819 817 817 819 820 820 821 821 818 816 817 819 820 820 820 820 813 803 798 798 798 798 800 802 803 805 805 805 808 810 812 813 815
831 831 830 829 828 827 826 824 823 822 820 818 816 815 815 814 814 814 814 812 813 816 818 818 817 821 823 819 818 817 815 815 814 813 813 812 811 810 810 810 810 810 811 811 810 810 810 812 815 816 814 814 814 814 815 815 816 816 819 822 822 822 821 817 815 818 821 821 820 819 816 811 804 797 796 796 795 798 801 803 805 805 806 807 810 813 815 818
832 831 830 829 828 827 826 825 824 822 820 818 816 814 815 818 817 817 816 816 819 822 822 822 821 821 821 819 818 816 814 814 814 814 813 812 811 809 809 809 810 811 813 813 812 812 813 815 817 816 815 815 815 814 814 815 816 818 820 822 823 824 824 818 815 819 822 819 815 813 814 812 803 795 796 797 796 799 802 802 804 805 806 808 813 817 819 822
832 831 830 829 828 827 826 825 824 823 821 819 817 817 821 824 824 823 823 822 823 823 823 822 821 821 820 820 819 817 816 815 814 814 813 812 810 810 810 809 812 813 812 812 812 813 815 817 816 816 817 816 816 816 816 817 817 819 821 823 825 826 823 818 817 820 822 820 813 809 813 810 801 795 796 797 797 799 801 801 803 804 807 812 816 820 822 823
832 831 830 829 828 827 827 826 824 823 822 820 819 821 824 826 826 827 826 825 823 823 823 822 821 821 820 819 819 818 818 817 816 814 813 812 809 812 813 812 815 815 813 813 814 816 818 816 815 818 819 817 818 819 818 819 820 822 824 826 826 824 822 818 820 822 822 821 812 809 813 809 800 797 797 796 796 799 800 799 803 805 810 816 818 821 823 824
832 831 830 829 828 827 826 825 825 823 823 822 821 823 825 826 826 826 827 827 825 823 823 822 821 821 820 820 819 819 819 819 818 816 814 813 811 814 815 814 816 815 815 815 816 820 818 814 817 820 818 818 820 821 821 822 824 823 825 827 824 822 822 819 820 823 821 819 814 813 815 810 802 799 799 799 798 799 802 802 806 809 812 818 820 821 824 825
832 831 830 829 828 827 826 825 825 824 824 823 823 825 825 826 826 826 826 825 825 823 823 822 822 821 821 820 819 819 820 819 819 817 816 815 814 815 815 816 817 816 817 817 818 819 816 817 822 821 820 821 821 822 823 824 826 825 824 825 823 822 823 821 822 823 818 817 817 815 812 805 802 803 802 804 802 801 804 805 810 816 817 819 821 823 825 826
832 831 830 829 828 827 826 825 825 825 825 824 825 825 825 826 825 825 825 826 826 824 822 822 822 821 821 820 819 820 820 820 819 819 817 817 817 816 816 817 818 818 818 818 818 817 816 821 825 821 821 822 822 823 823 824 827 826 825 827 826 824 824 823 824 822 818 817 816 817 816 805 800 805 806 805 804 805 806 808 814 820 820 821 822 825 826 827
832 831 831 829 828 827 826 826 826 826 825 825 826 826 825 826 825 825 826 829 830 826 824 824 823 822 821 820 819 819 820 820 820 819 818 818 818 817 817 817 817 818 819 818 819 819 821 826 826 823 823 823 824 825 823 826 828 826 827 831 829 825 824 824 825 824 822 820 817 819 823 816 804 802 806 807 806 807 809 813 819 821 822 823 825 827 828 829
833 832 831 830 829 827 827 827 827 826 825 826 826 825 825 825 825 825 827 833 835 829 826 825 823 823 822 820 819 820 822 820 819 819 819 819 819 818 819 818 818 819 820 820 820 821 824 826 825 824 825 825 825 825 824 827 827 825 829 833 827 824 825 825 828 829 827 825 822 819 822 823 814 804 807 808 807 811 816 820 823 823 824 826 828 829 830 831
833 832 831 830 829 828 828 827 827 826 826 826 825 825 825 824 825 824 829 840 839 829 827 826 822 822 821 820 820 821 822 820 820 820 819 819 819 819 820 820 822 821 820 823 824 824 825 823 822 824 825 826 825 826 827 826 823 825 831 832 827 826 827 829 830 830 831 830 822 816 819 821 815 809 812 812 810 818 824 824 825 825 827 828 830 832 833 834
833 832 831 831 829 828 828 827 827 827 826 825 824 825 824 823 825 824 832 842 837 828 829 826 822 823 822 821 822 823 823 822 822 821 819 820 820 820 822 822 824 822 821 825 825 823 824 825 826 825 825 826 826 828 829 825 823 827 832 831 829 831 830 831 833 831 833 830 816 812 817 816 810 808 812 813 813 823 827 826 826 827 828 829 831 834 834 835
833 832 832 831 830 829 828 827 827 826 825 824 824 823 823 823 825 831 841 843 834 829 829 825 825 827 827 826 825 825 826 825 824 822 820 821 821 821 823 824 824 824 825 827 824 823 827 829 829 828 828 828 828 831 831 829 828 828 830 828 826 832 834 833 835 834 831 823 814 815 816 815 812 809 814 817 816 822 826 827 829 829 831 833 834 836 837 837
834 833 832 830 830 829 828 827 826 826 825 823 823 822 822 824 827 838 847 841 833 832 829 828 830 830 832 835 832 828 828 828 827 825 822 823 824 823 823 825 825 825 825 825 823 824 827 828 828 829 832 831 829 829 831 832 831 828 829 828 823 826 830 830 832 832 827 815 812 817 815 813 812 809 817 823 820 822 825 826 830 832 834 836 838 839 840 839
834 833 832 831 830 829 828 828 826 825 824 822 822 821 823 830 835 843 845 836 836 838 835 836 835 834 837 840 838 836 834 831 829 829 828 828 830 832 832 833 832 829 826 826 825 821 821 827 832 832 832 832 829 826 827 830 831 829 828 826 823 822 822 823 823 823 819 814 814 815 812 812 812 812 820 823 820 823 826 828 832 835 837 839 841 841 841 840
834 833 832 831 831 829 828 828 826 825 823 822 822 821 826 838 845 849 844 838 840 841 840 842 838 838 841 837 838 841 838 833 831 831 833 832 832 836 839 839 838 834 830 832 831 825 823 828 832 830 829 833 831 823 821 824 826 826 824 823 826 826 826 824 821 818 814 813 815 817 814 811 812 819 823 820 820 826 829 833 835 836 838 840 842 842 841 841
834 833 832 831 830 829 828 827 826 825 823 822 822 824 833 844 849 850 847 844 844 842 842 844 842 841 841 839 842 843 837 834 834 832 831 831 831 834 836 838 840 838 834 834 832 831 829 825 825 826 826 832 832 826 826 826 826 826 824 825 826 825 827 826 822 820 817 814 817 818 815 811 811 819 822 820 826 832 834 837 837 837 840 841 841 842 841 842
834 833 832 831 830 829 828 827 826 824 823 822 825 832 842 848 849 849 850 850 849 846 844 846 845 839 837 841 845 844 840 837 836 833 830 832 835 837 839 842 844 842 838 834 832 834 833 823 824 832 833 832 830 830 834 830 825 828 827 826 826 823 824 825 824 825 823 823 823 817 815 819 818 819 823 826 832 836 836 836 837 838 840 841 842 843 843 844
833 832 832 831 830 829 828 827 826 824 823 823 829 839 847 850 850 851 853 854 854 853 848 844 842 838 838 841 840 842 844 841 839 836 832 834 839 841 843 846 849 846 841 838 836 837 836 824 823 833 834 833 833 834 836 831 824 826 826 825 828 829 826 826 827 827 826 828 825 813 814 828 829 823 827 832 835 838 839 838 839 840 841 843 844 846 846 845
833 832 831 831 830 829 828 827 826 825 824 825 833 845 851 853 856 858 858 857 856 857 853 845 841 842 845 845 840 842 844 841 841 840 835 835 839 842 844 846 851 848 846 845 838 837 840 829 823 829 828 831 840 838 835 837 831 826 826 827 830 831 829 830 833 831 830 832 825 811 812 826 829 823 828 837 840 841 843 842 843 843 843 845 847 847 847 845
832 832 832 831 830 829 828 827 826 825 825 830 839 849 852 855 860 863 863 862 859 856 854 850 845 844 848 849 846 845 844 842 842 842 839 836 838 843 843 844 849 848 849 850 841 839 843 832 824 831 832 832 840 837 829 835 838 831 831 832 830 828 826 830 835 833 834 836 829 817 811 817 824 825 832 843 846 845 846 846 845 845 846 848 849 848 848 847
832 832 833 832 830 829 828 827 827 825 828 836 844 849 854 858 863 867 867 866 862 857 853 854 852 848 848 851 850 847 847 846 845 845 842 837 838 843 845 845 847 848 850 851 846 842 842 837 829 831 836 834 834 831 823 826 835 835 835 834 830 830 828 829 831 831 833 836 835 827 817 819 830 836 842 849 849 848 849 848 847 848 850 851 851 850 848 845
832 833 834 833 830 830 828 827 827 828 835 844 849 850 855 859 863 868 869 866 862 859 856 856 856 853 851 852 852 851 849 848 847 846 842 839 838 841 848 852 849 850 852 851 850 846 843 841 833 829 835 833 826 825 823 822 827 830 831 830 829 829 830 830 830 831 831 832 835 833 827 831 840 844 847 851 851 851 850 850 851 851 853 853 852 850 846 842
833 835 835 833 831 830 828 829 834 838 843 848 852 854 858 861 863 865 868 867 863 861 860 859 857 856 856 855 853 853 851 848 848 845 840 840 839 840 851 861 857 855 853 847 848 848 844 844 839 834 834 828 821 827 832 830 830 827 825 826 827 827 829 832 834 835 834 833 835 837 835 840 845 846 849 852 852 852 852 852 853 854 854 853 850 847 844 842
835 838 837 833 831 830 829 834 843 846 847 851 857 860 861 863 864 863 865 866 863 862 861 860 859 858 858 857 855 854 853 850 848 844 841 842 844 846 855 864 862 859 855 848 849 852 850 849 847 841 835 828 827 834 838 836 834 831 828 827 828 827 826 829 833 837 839 837 840 843 842 844 848 849 851 852 852 853 853 854 854 854 853 851 848 846 845 844
838 839 836 833 832 830 831 840 847 848 853 861 864 864 865 865 863 862 863 863 862 862 861 859 859 859 859 859 859 857 855 852 847 845 844 844 848 855 861 863 861 859 856 852 850 852 851 850 848 841 832 828 830 833 836 836 832 829 828 829 830 829 830 832 834 840 844 839 840 845 844 847 852 852 851 852 852 853 853 854 854 854 851 849 848 846 846 847
841 840 837 835 832 830 835 846 849 850 857 862 862 862 866 866 864 863 863 863 863 863 861 860 861 862 861 861 861 858 857 853 847 847 847 845 849 860 864 863 861 858 857 855 854 855 850 846 847 845 837 831 829 829 830 830 829 827 827 832 835 834 837 840 840 846 848 842 842 845 841 842 848 849 850 852 852 853 854 854 853 852 851 850 849 848 848 849
841 841 840 838 834 833 842 851 851 851 855 858 858 860 862 864 867 868 866 866 867 866 864 864 864 865 864 863 862 859 858 856 851 849 849 847 850 860 864 863 862 860 860 861 862 860 853 848 849 849 847 843 837 832 830 833 834 831 830 834 837 836 838 838 841 847 849 846 848 847 840 836 839 843 848 849 850 850 851 851 851 852 852 851 850 850 851 851
842 844 844 842 840 842 849 854 853 852 855 856 857 860 860 860 865 871 870 867 868 868 866 866 866 865 863 862 861 858 856 856 854 851 850 848 849 857 862 863 863 862 862 863 862 860 857 854 851 848 848 846 840 836 836 840 842 837 833 835 838 840 841 841 845 849 849 852 851 847 846 845 842 847 854 854 854 855 853 853 854 853 852 852 852 853 853 852
844 849 852 849 846 848 852 855 855 855 856 857 858 861 862 860 862 867 868 867 869 869 866 866 866 864 861 862 863 860 856 855 855 854 854 853 852 855 861 864 863 862 862 862 861 860 859 855 852 850 847 844 843 842 840 843 844 840 836 836 838 844 845 843 845 845 847 854 852 848 853 854 849 854 862 860 860 860 858 858 858 855 854 854 855 855 854 853
847 853 857 855 853 854 854 856 859 859 858 859 861 863 863 862 863 864 865 866 869 868 864 863 865 865 864 865 864 862 858 855 853 854 854 856 856 856 857 861 863 864 863 862 861 861 861 857 854 854 849 843 845 844 842 844 844 838 838 838 839 845 845 841 843 846 850 855 854 852 855 855 855 861 864 863 863 862 860 860 859 857 856 857 857 856 855 854
850 853 857 857 856 859 861 861 862 860 859 860 862 864 865 864 865 866 866 865 864 867 866 861 862 866 866 865 864 863 860 857 855 856 857 859 861 859 857 857 861 864 863 861 861 862 862 857 854 856 852 845 843 841 840 843 840 838 845 849 844 844 845 845 848 853 856 855 854 856 856 855 861 867 865 863 864 862 861 860 858 857 858 858 857 856 855 854
850 851 855 856 857 861 864 864 862 858 860 862 862 865 867 866 866 868 869 867 862 865 868 864 863 867 866 865 865 862 860 860 860 860 862 863 864 862 859 857 861 864 863 861 861 862 861 857 854 856 854 846 840 836 834 836 838 843 854 857 852 850 852 854 856 857 858 857 856 858 856 856 862 866 864 863 863 862 861 859 857 858 860 859 857 857 856 855
849 850 852 852 857 862 862 862 861 858 861 866 865 866 868 867 869 870 869 870 867 865 867 866 866 868 867 865 864 861 861 866 865 863 866 867 866 864 862 862 864 865 863 862 862 862 862 860 858 859 858 849 839 834 835 838 840 848 860 863 860 859 860 860 860 859 860 861 859 859 859 862 865 865 864 864 863 863 863 861 859 859 861 860 858 857 856 855
850 851 851 851 857 864 863 861 861 860 864 870 870 869 868 868 871 869 865 868 871 870 869 869 869 869 865 862 862 863 866 868 867 867 869 869 868 867 866 866 866 866 865 864 864 863 864 864 861 862 862 850 837 837 842 840 839 851 866 869 866 865 865 863 860 858 860 862 863 865 867 868 868 867 865 865 865 866 866 863 861 861 861 859 857 856 855 854
Wind_Speed
6 6 6 6 6 6 5 5 4 4 3 2 2 3 3 3 1 2 5 6 6 7 7 9 9 10 11 10 8 4 1 3 13 22 17 12 17 15 12 9 9 9 9 9 11 12 13 12 10 11 9 4 1 1 1 2 3 4 3 2 0 1 1 1 2 2 2 4 4 5 6 6 4 3 0 0 1 2 3 5 4 4 3 3 10 15 21 27
5 5 5 5 6 6 6 6 5 5 3 2 2 2 2 3 1 2 3 5 7 9 10 10 10 10 11 11 9 6 4 2 8 18 14 15 17 11 8 7 7 8 9 8 10 11 8 7 11 12 6 2 1 1 1 2 3 3 2 2 2 4 2 1 2 1 1 4 6 6 7 6 5 5 3 2 4 4 5 6 4 6 4 4 12 20 25 28
4 4 4 4 6 6 7 8 7 5 3 2 1 1 2 2 0 2 4 6 8 10 11 10 10 12 10 10 8 4 4 1 4 9 12 15 13 8 7 6 5 7 8 8 9 10 7 8 12 8 2 1 2 1 2 2 2 1 3 2 4 5 2 1 2 1 1 3 6 5 5 3 4 5 3 4 5 4 7 7 5 8 7 7 11 18 24 25
4 4 3 4 5 6 8 8 7 5 4 3 2 1 1 1 1 2 5 6 9 10 10 9 11 13 9 7 6 1 1 5 3 6 11 14 11 8 6 5 5 6 7 8 10 11 11 12 11 5 2 1 3 3 3 1 1 1 3 4 5 4 3 1 2 2 3 1 5 5 3 1 3 5 4 5 3 5 7 8 9 10 11 10 10 15 21 22
4 3 2 4 5 7 9 8 6 5 4 4 3 2 2 2 2 3 5 6 8 7 8 10 12 12 7 2 5 3 3 4 3 6 11 13 10 7 6 5 4 4 7 9 10 12 10 9 5 1 2 1 3 4 1 2 3 2 1 4 3 2 3 4 3 1 3 2 4 5 3 2 1 3 5 6 5 7 6 7 9 9 8 9 12 14 16 17
3 2 3 4 6 9 9 7 5 5 4 5 5 4 4 4 4 4 5 5 6 6 9 11 12 11 6 2 3 4 2 2 4 7 10 12 10 7 6 6 6 5 7 9 10 10 7 3 1 1 1 1 1 2 2 4 4 2 2 2 1 1 3 3 3 0 1 3 3 4 2 1 1 3 5 8 10 10 6 6 7 8 8 11 15 15 12 12
3 3 3 5 7 9 9 7 6 5 5 6 6 5 5 5 5 5 5 7 7 7 9 11 12 10 6 4 3 4 4 2 4 6 9 11 9 7 6 6 8 6 6 9 11 8 4 6 3 1 2 2 1 3 1 4 3 4 3 2 0 2 4 3 3 1 1 2 3 2 2 2 4 5 3 7 13 11 8 7 7 8 10 11 12 13 12 14
4 4 4 6 8 9 9 7 6 4 4 5 5 5 5 6 6 6 6 8 9 8 9 11 12 10 5 3 1 4 3 2 2 6 9 10 9 8 5 5 9 7 5 10 11 6 2 5 3 2 3 1 2 2 1 3 3 3 3 4 2 3 4 4 4 3 1 2 3 1 2 6 7 4 5 11 13 9 9 8 6 8 8 7 7 10 11 13
5 4 5 6 8 9 9 7 5 4 4 5 6 6 7 8 8 8 8 9 9 9 10 11 12 8 6 4 2 2 2 3 1 6 7 10 10 9 7 7 10 8 6 8 10 8 3 2 2 2 2 2 3 2 1 1 1 2 3 3 3 3 4 5 3 4 4 3 2 2 5 8 7 4 7 13 13 10 8 7 6 7 6 6 6 7 7 9
4 4 5 6 8 9 9 7 5 4 5 6 7 7 8 9 10 9 9 9 10 9 9 11 11 8 7 4 3 1 2 3 2 5 5 8 10 11 11 11 11 9 6 7 10 9 3 0 2 1 2 1 2 2 1 3 3 2 3 1 2 5 4 5 4 5 5 3 4 6 7 7 5 2 5 9 8 5 6 5 6 7 7 6 5 5 7 8
4 4 5 6 7 8 8 8 6 6 6 7 8 8 9 10 11 10 9 9 10 9 8 11 10 8 7 3 2 2 3 2 3 5 5 6 8 10 11 11 11 10 7 6 8 7 4 3 3 2 1 1 1 0 1 2 2 1 3 2 2 4 3 5 5 6 4 3 5 7 6 4 2 2 8 8 3 3 8 5 5 7 6 6 6 6 6 8
4 4 5 6 6 7 8 8 8 7 7 7 8 9 9 10 10 9 9 9 9 8 8 10 9 7 7 4 2 2 2 2 2 5 7 7 7 7 7 8 9 9 6 4 4 5 6 7 4 3 0 2 1 1 1 2 1 1 5 2 4 1 3 6 5 4 4 2 5 4 4 3 3 7 12 7 3 4 7 5 5 6 6 5 6 5 5 9
3 4 5 6 7 7 7 8 9 8 8 8 8 9 8 8 8 8 9 9 9 8 8 8 8 7 5 2 1 1 2 3 3 5 8 8 7 5 3 5 7 7 5 4 3 3 5 7 4 4 1 3 2 1 1 1 2 1 2 3 1 3 5 7 5 3 4 2 3 2 3 6 6 12 12 5 5 6 6 6 6 5 5 5 5 5 5 7
3 4 6 7 8 8 8 9 9 9 10 10 10 9 8 7 7 8 10 11 10 8 7 7 7 6 3 0 3 2 2 3 3 7 8 8 7 4 1 3 5 6 4 2 3 3 2 5 5 4 2 3 2 1 2 3 2 1 0 1 1 1 5 5 4 4 3 2 0 4 1 7 7 10 11 5 8 8 7 7 6 5 5 5 5 5 5 5
4 5 6 8 9 9 9 10 10 11 11 11 11 10 9 8 7 10 11 12 10 6 6 6 5 3 3 1 2 1 2 2 3 8 9 9 8 4 3 5 6 6 5 3 3 3 3 4 3 3 1 1 2 3 3 3 2 1 0 3 2 2 4 5 2 6 4 3 1 5 1 7 9 10 7 6 9 8 8 7 6 6 4 6 5 5 5 5
5 5 6 8 10 10 10 11 12 12 12 12 12 10 9 8 9 11 11 12 10 6 5 5 6 3 3 1 1 1 2 2 4 8 8 8 8 6 9 10 7 7 8 6 4 4 4 3 2 2 2 1 3 4 3 4 4 2 1 3 4 3 3 4 4 3 5 2 0 2 2 5 7 6 0 5 8 8 7 6 4 3 4 7 6 5 5 4
5 6 7 9 10 11 12 13 13 13 14 15 14 12 10 10 13 12 10 11 7 4 4 4 7 4 3 1 1 1 2 3 6 8 6 7 7 8 9 7 5 7 7 8 5 3 2 1 0 0 2 1 2 5 4 3 4 4 1 1 4 3 3 3 5 4 3 2 2 3 4 6 11 9 2 4 7 8 7 5 2 2 6 6 6 5 4 4
6 7 9 11 12 12 13 13 14 15 16 16 14 12 11 11 12 8 9 9 4 1 1 3 5 3 0 2 1 3 4 5 8 8 6 6 7 8 7 4 5 9 6 3 2 1 1 1 1 1 3 3 1 6 2 4 3 3 3 3 4 3 3 4 5 3 2 1 3 2 4 9 14 14 5 5 7 8 7 5 5 5 7 6 6 6 4 6
7 9 10 12 12 12 12 13 14 15 15 13 10 8 8 7 4 3 9 10 3 2 0 2 3 2 2 3 3 7 9 8 8 5 4 7 9 9 6 5 4 3 3 3 1 2 1 2 3 2 3 3 2 5 6 7 7 6 5 4 4 5 5 6 5 3 3 1 5 6 7 8 12 15 7 4 3 6 6 6 6 5 7 6 6 5 6 8
8 10 11 12 12 11 11 12 12 14 14 14 13 7 4 5 3 2 8 9 2 1 1 2 1 1 2 3 5 12 9 6 4 1 5 12 11 8 3 2 1 2 0 1 3 2 2 2 4 4 6 6 4 4 5 4 4 4 3 2 5 5 6 6 5 4 2 1 6 7 6 7 13 16 8 3 3 7 8 8 7 6 7 6 7 7 8 9
10 11 12 12 11 10 10 9 11 13 13 14 13 7 2 2 2 2 4 4 2 1 1 4 2 1 1 2 4 9 4 1 3 2 8 14 6 2 3 1 4 3 3 3 1 2 3 1 6 7 7 4 2 3 3 1 2 1 2 3 5 4 6 5 2 3 1 1 5 6 5 9 14 14 8 2 3 7 8 9 8 8 7 6 8 9 9 7
11 12 12 11 10 9 9 8 9 12 13 13 12 7 4 3 2 2 0 2 4 2 2 5 2 1 2 1 4 7 2 1 4 4 11 14 4 1 3 3 3 3 4 2 2 5 4 3 8 6 3 3 3 4 4 2 1 0 0 1 4 4 4 5 2 1 1 1 5 6 6 10 15 11 8 3 5 6 6 8 8 8 9 7 9 9 8 7
11 12 11 10 10 10 9 8 9 11 12 12 10 6 4 3 3 3 2 0 3 2 2 3 2 2 2 1 4 6 2 1 2 3 10 12 3 1 1 2 2 3 4 3 1 1 3 5 5 1 4 4 3 2 4 4 2 1 2 1 4 4 3 3 3 3 2 2 4 6 6 9 10 5 6 6 6 7 5 8 7 7 9 9 9 8 8 8
11 11 10 10 11 11 9 6 7 10 10 9 10 7 4 3 2 2 1 1 2 2 1 1 1 2 2 2 4 4 1 0 1 3 8 7 1 0 1 0 2 2 3 1 3 2 5 5 1 3 4 2 1 2 2 1 3 4 4 4 5 5 3 4 4 4 4 3 3 4 5 5 4 4 4 6 6 7 6 9 9 8 9 9 9 8 8 9
11 11 11 11 12 13 9 4 7 10 7 5 7 5 4 3 1 1 0 1 2 2 1 1 1 1 3 4 4 1 1 1 0 3 6 5 1 1 0 1 1 1 4 2 4 3 6 4 1 3 2 2 1 2 3 4 2 5 3 5 6 2 2 3 5 5 5 5 3 5 5 5 4 4 3 1 5 6 5 9 10 9 8 8 8 8 8 9
10 10 11 12 12 14 8 2 8 12 5 3 4 3 2 2 2 1 1 3 3 3 1 1 1 2 4 3 2 1 1 2 2 2 4 4 1 1 1 2 1 1 3 2 3 2 3 3 3 3 1 2 2 3 4 5 3 4 3 5 4 3 3 4 5 4 1 3 3 2 1 4 6 3 4 4 6 7 5 8 9 7 7 7 7 7 8 9
10 10 11 12 13 13 6 2 10 9 2 3 6 4 2 2 2 2 2 4 3 2 1 2 0 2 3 2 2 1 0 3 1 1 2 2 3 1 1 3 2 1 2 2 3 2 1 4 5 3 2 2 1 3 4 5 5 3 4 3 0 3 5 3 4 1 3 3 5 1 4 3 5 5 4 6 9 7 7 8 8 7 7 7 7 7 8 8
11 11 11 12 12 10 6 6 8 5 3 7 7 3 2 3 3 1 4 4 2 1 1 3 1 2 3 2 3 2 2 4 2 2 2 1 3 3 1 3 1 4 3 3 2 5 1 1 2 1 3 1 2 4 3 2 3 4 5 3 2 2 2 1 3 2 2 2 5 4 4 3 5 4 0 4 8 6 6 7 7 7 7 7 8 8 8 8
12 12 12 13 10 8 9 8 6 6 7 7 5 3 4 4 2 3 5 2 1 1 0 1 1 3 4 5 4 3 2 3 1 2 2 2 1 3 1 2 2 4 5 3 4 7 1 2 4 4 2 2 4 4 2 2 1 4 3 2 3 1 1 2 3 2 2 2 4 5 3 3 4 3 2 3 4 5 5 6 6 6 7 7 8 8 8 8
12 12 12 13 9 8 10 6 6 9 8 7 7 7 5 2 3 5 3 0 1 1 1 1 2 3 6 7 5 4 3 2 2 3 3 2 3 3 1 1 3 1 4 2 3 6 2 1 2 3 1 4 3 2 1 3 2 2 2 3 4 3 2 2 2 3 4 2 5 6 4 4 1 3 3 2 2 6 6 5 5 6 7 8 7 8 8 7
12 12 12 12 10 9 8 5 8 11 9 10 11 6 2 3 4 5 1 1 1 2 2 2 3 4 7 5 4 5 5 4 5 4 4 4 4 6 4 3 4 4 4 5 3 5 4 3 0 0 1 1 2 2 2 2 2 2 4 3 4 4 3 4 4 4 3 3 6 5 1 5 1 3 2 1 1 6 7 6 7 7 7 7 7 7 6 6
11 11 12 12 10 9 7 6 10 11 11 13 10 4 4 4 4 2 2 3 2 2 2 2 4 4 5 3 1 4 4 4 4 3 2 3 4 4 3 2 2 4 4 4 4 5 4 2 2 2 2 1 3 2 5 5 5 4 3 4 4 4 3 3 3 1 1 4 4 1 3 2 3 3 2 3 4 5 6 7 8 8 8 7 7 6 6 6
10 10 10 10 9 10 8 9 11 10 12 12 6 4 6 5 2 1 3 3 1 2 1 1 4 4 4 4 2 4 3 3 4 3 1 2 4 2 2 3 3 2 2 3 3 5 4 4 3 2 2 1 3 2 2 3 2 2 1 2 3 1 2 3 4 2 2 4 4 1 2 1 3 1 3 5 6 5 6 8 8 8 8 7 7 7 7 7
8 9 9 8 9 10 10 10 10 10 12 8 4 6 7 4 1 1 2 3 2 3 2 1 4 5 4 2 2 4 3 2 4 5 3 3 4 2 3 6 6 3 0 1 2 1 2 4 3 0 1 1 1 3 4 2 1 2 3 3 3 3 2 3 3 2 3 4 4 2 0 2 1 2 5 5 6 7 8 7 7 8 7 6 7 8 8 8
7 8 8 8 10 11 11 10 10 11 10 5 5 6 4 1 2 1 1 4 2 4 5 2 2 4 5 3 2 3 2 2 5 5 3 2 3 1 2 4 5 3 2 2 2 1 1 4 5 2 1 2 1 2 3 3 1 2 1 3 1 3 4 2 3 4 3 3 4 2 1 1 1 2 2 5 9 8 7 7 8 8 7 7 7 7 7 7
6 6 7 7 10 12 11 10 10 10 7 4 6 4 2 1 1 1 1 2 1 3 6 5 4 3 5 4 3 4 2 1 3 5 3 1 2 1 1 1 3 3 3 2 2 2 1 5 4 1 2 2 3 2 0 0 1 1 1 1 4 4 4 1 3 3 2 2 3 2 1 1 2 2 3 8 9 8 8 8 7 7 7 7 6 6 6 7
5 5 4 6 11 12 11 10 10 9 5 5 5 2 2 1 1 2 1 1 1 1 3 4 2 2 3 3 4 5 3 2 3 4 3 1 1 1 1 1 2 0 1 1 2 1 1 5 5 1 2 3 2 1 2 2 1 2 1 4 3 1 4 3 1 3 4 1 4 2 3 3 2 3 2 7 8 7 7 7 6 5 5 6 5 5 7 8
5 3 2 7 12 12 10 10 9 6 4 6 4 2 1 1 1 1 1 1 1 1 4 1 2 1 2 2 4 5 4 3 3 4 2 2 1 1 1 1 1 2 1 1 1 1 0 4 6 1 1 3 2 2 3 4 1 2 3 3 1 1 1 1 1 1 1 2 3 4 2 2 2 2 2 5 5 5 5 5 5 5 6 6 6 6 7 8
5 2 1 8 13 11 10 9 7 5 5 5 3 1 1 1 1 1 1 0 0 2 3 1 1 2 2 1 2 4 3 2 3 3 1 1 2 1 3 1 1 2 2 1 1 2 1 1 5 3 0 2 3 2 1 3 3 2 2 3 1 2 3 1 2 2 1 2 3 4 4 2 2 1 5 4 3 4 5 5 5 6 6 6 6 6 7 8
4 2 1 10 14 10 9 8 5 5 5 3 1 1 1 0 2 2 2 1 0 1 1 1 1 2 2 2 2 2 2 1 2 2 1 1 2 1 2 2 1 4 4 3 1 2 2 1 5 5 3 2 2 1 3 3 1 1 2 1 2 1 1 1 1 2 3 2 3 3 3 2 2 2 6 6 3 3 3 4 4 4 5 5 6 8 9 10
3 3 3 12 15 10 7 6 4 4 3 2 2 1 1 1 1 2 1 0 0 1 1 2 1 0 1 2 2 2 2 2 2 2 2 1 2 2 1 2 1 3 3 4 2 2 1 1 4 4 4 3 4 4 4 5 4 4 3 2 3 2 1 0 4 2 2 2 4 3 3 3 1 3 5 5 3 2 3 3 4 4 6 6 8 10 10 11
4 2 4 13 16 9 5 5 2 2 4 2 2 1 1 1 1 2 2 1 1 0 1 1 2 1 1 1 2 2 2 2 2 1 1 1 1 1 0 1 1 0 1 2 2 2 1 1 2 5 5 5 6 4 2 3 4 4 2 2 3 2 3 2 4 4 1 1 2 2 2 3 1 4 5 4 3 3 4 5 5 5 6 8 9 10 11 9
3 0 4 13 16 8 6 5 4 4 3 1 1 0 1 1 1 1 1 2 1 0 2 1 0 0 1 1 2 2 3 2 2 1 1 2 1 2 1 2 2 1 2 1 2 1 1 0 1 5 5 4 5 3 1 0 2 2 1 0 1 0 2 4 4 3 1 3 1 1 3 3 3 4 5 4 4 5 5 5 5 5 6 8 10 11 10 8
1 2 2 12 15 5 5 3 1 2 2 1 2 2 2 1 1 1 1 2 1 1 2 1 1 1 1 1 1 2 3 2 2 1 1 1 1 2 2 2 2 1 1 0 1 2 2 1 1 4 6 6 6 5 5 4 3 1 2 1 1 2 4 2 0 3 0 4 3 3 4 3 5 4 4 4 4 5 6 5 6 7 8 9 10 10 8 8
2 1 3 9 14 9 4 3 4 3 1 2 3 3 3 2 1 1 1 1 1 1 1 1 1 1 1 1 1 3 2 2 3 2 2 2 2 2 2 1 0 1 0 1 1 0 1 2 0 1 3 5 5 4 3 3 3 2 2 2 1 1 2 1 1 2 1 3 1 3 4 4 2 3 7 9 9 9 9 9 8 8 9 10 9 8 7 8
2 2 3 6 9 8 3 0 4 4 2 3 3 2 3 2 3 1 1 2 2 2 1 1 1 2 2 2 3 3 3 2 4 2 3 3 3 2 1 1 0 2 1 2 0 1 1 2 2 4 5 6 6 7 5 2 4 7 7 6 3 1 3 4 2 1 3 2 2 1 3 8 8 9 10 11 11 11 11 11 10 9 11 10 8 7 8 8
2 1 1 2 4 4 4 4 5 3 1 3 2 1 3 3 3 2 2 0 1 2 1 0 2 2 2 3 3 3 4 3 3 3 4 4 3 3 2 2 1 1 1 1 0 3 3 3 4 5 8 9 7 8 8 5 6 9 9 8 3 3 5 5 2 4 2 1 4 2 6 10 8 7 8 8 8 8 8 8 9 11 11 9 6 8 10 9
2 2 1 1 1 1 3 4 4 4 4 3 3 1 3 4 4 3 1 1 1 2 1 2 3 3 2 2 1 3 4 5 4 3 3 3 3 5 4 2 1 1 2 2 1 4 3 3 5 3 6 10 8 9 9 7 6 6 7 8 3 5 6 5 4 3 2 1 5 5 8 8 6 7 8 7 6 7 7 7 9 11 9 7 7 10 10 9
2 2 1 1 2 2 1 2 3 5 5 4 3 2 3 4 4 2 2 2 3 3 2 1 3 4 5 3 1 2 3 3 4 4 2 2 3 3 3 2 1 1 3 2 2 2 3 3 4 2 5 10 10 10 9 6 4 3 5 8 2 5 6 4 2 3 4 2 4 8 10 7 3 5 7 5 5 6 7 8 11 11 8 7 9 10 10 10
2 2 1 3 3 1 0 2 3 4 4 4 3 2 2 3 3 3 2 2 2 3 2 1 6 6 6 4 2 4 5 3 4 6 1 2 3 2 1 2 1 3 3 1 2 1 1 2 3 1 2 8 9 8 6 4 2 3 8 11 8 4 4 3 2 4 4 3 5 9 10 6 3 5 7 6 6 8 10 13 13 9 7 8 10 9 9 10
3 3 3 4 3 3 2 2 2 4 3 4 2 1 2 2 1 3 2 1 2 2 1 3 6 6 4 4 4 7 7 5 6 8 4 3 4 2 1 1 1 4 4 1 1 2 1 2 4 5 3 6 6 5 7 6 3 6 8 11 9 7 5 3 2 4 3 4 8 9 7 4 3 6 7 6 9 12 13 15 13 8 6 8 9 9 9 10
3 2 2 5 3 3 2 3 3 4 1 2 1 1 2 3 3 1 1 1 0 2 4 4 3 3 3 5 5 6 6 5 7 7 4 4 4 3 3 3 1 1 1 1 1 0 2 0 3 2 2 5 5 6 8 6 3 4 5 7 4 3 4 5 6 6 5 4 5 5 4 4 5 8 9 9 11 12 11 12 11 6 6 8 9 11 12 12
Wind_Direction
101 93 81 71 53 42 39 34 30 18 18 16 36 63 87 120 116 13 25 33 19 5 358 350 352 352 354 356 346 307 239 75 31 36 46 13 352 343 335 333 341 346 341 339 352 2 1 3 350 345 347 334 92 113 14 37 44 56 75 97 301 218 169 228 196 217 151 166 198 194 182 163 199 255 162 102 200 195 223 236 249 249 245 144 145 149 153 160
100 90 78 58 34 29 27 19 13 2 356 351 20 68 94 126 231 319 346 353 343 339 340 339 341 339 340 345 331 286 243 191 32 36 30 360 356 348 338 345 348 346 346 347 352 357 353 335 331 342 360 350 331 69 64 347 47 88 98 101 221 199 182 226 169 221 61 170 193 196 199 189 193 195 159 202 245 222 227 255 249 244 255 130 146 149 152 159
105 93 77 44 25 25 19 13 9 3 1 357 18 78 98 113 12 311 317 327 328 330 334 333 337 336 334 343 336 266 227 132 34 16 359 355 0 356 354 355 351 352 347 342 337 332 313 291 303 319 13 341 291 81 66 354 37 123 101 94 233 195 146 5 80 59 340 166 169 188 199 202 200 166 147 213 236 220 218 239 224 231 229 175 167 160 158 162
113 104 73 32 25 19 9 7 8 14 23 25 22 30 61 33 341 310 310 318 321 326 331 334 338 336 331 356 25 88 128 61 22 327 344 356 5 8 14 2 352 350 336 334 325 310 295 284 289 300 59 347 311 53 60 331 34 56 106 164 228 158 130 271 93 35 322 88 142 162 149 230 218 161 166 185 218 256 232 225 213 221 221 192 181 171 168 169
121 109 63 35 27 9 3 6 11 22 26 34 34 24 25 359 346 324 320 320 325 334 338 338 334 330 324 354 36 26 41 51 317 328 355 1 8 16 28 23 9 349 342 338 322 316 303 275 266 350 63 0 342 40 10 288 101 53 113 171 221 117 142 217 149 49 311 33 101 134 145 242 226 160 192 180 200 242 224 210 203 204 210 186 177 176 174 176
130 101 66 43 24 8 9 16 19 25 35 53 52 41 39 23 17 357 346 343 338 339 338 338 336 329 308 286 350 351 75 123 307 349 6 5 10 19 41 43 27 356 338 337 330 335 336 306 199 80 52 71 39 114 271 305 97 103 259 146 320 136 146 189 159 65 3 67 104 156 194 277 314 269 225 197 218 231 207 186 181 171 159 151 163 172 177 184
120 88 64 36 19 16 23 31 30 39 59 60 48 41 29 12 12 0 353 350 338 330 335 341 342 333 295 283 357 35 93 164 312 3 14 13 13 18 48 43 20 360 339 355 354 346 2 23 40 134 81 79 124 146 248 312 69 105 208 195 130 132 135 156 160 189 58 97 193 175 343 283 237 265 269 227 234 237 228 211 188 167 151 140 152 169 183 191
98 74 45 24 18 22 29 36 38 41 50 35 23 21 8 357 349 339 340 341 338 334 337 342 343 340 316 304 41 45 39 229 317 16 21 24 26 22 37 36 22 21 27 21 9 351 2 32 17 67 81 136 141 125 282 330 30 95 185 198 150 132 150 148 146 178 195 235 220 87 293 247 227 248 289 258 250 243 231 226 194 159 155 156 160 171 181 190
82 56 28 19 16 22 30 35 37 21 2 353 354 351 346 349 342 334 333 329 332 334 335 340 341 341 333 339 83 33 312 203 353 8 20 34 38 35 41 38 25 27 38 22 17 24 45 54 3 47 114 185 116 115 157 77 238 208 165 174 166 169 167 148 165 204 207 233 186 186 250 252 246 255 275 259 256 250 221 219 200 159 170 186 177 180 178 183
71 44 26 13 11 20 26 27 25 7 347 333 330 331 329 335 338 334 332 329 328 330 335 338 336 336 331 343 65 13 235 160 49 1 17 32 36 39 45 41 26 32 47 32 29 35 57 70 310 351 124 125 89 139 159 138 195 208 133 150 162 166 176 162 200 224 207 230 191 203 243 248 246 243 268 265 265 238 174 201 206 175 192 193 178 189 193 192
53 37 22 5 2 10 16 17 12 3 348 333 326 324 320 323 331 331 331 334 331 332 335 337 339 337 339 13 108 210 204 133 40 13 8 12 23 26 33 34 25 34 48 46 37 33 38 349 337 23 101 125 52 70 241 181 178 128 114 5 314 177 200 182 213 236 198 240 205 207 260 251 174 203 241 251 263 133 135 171 192 181 199 184 177 189 198 209
23 19 9 356 350 355 4 4 360 357 346 341 333 325 321 320 327 331 333 336 333 334 334 339 345 339 354 43 107 183 157 74 24 11 5 352 354 357 18 28 23 32 40 48 41 34 26 351 11 74 164 176 142 34 255 208 130 70 111 59 309 265 255 218 207 217 169 213 212 192 314 308 173 226 245 236 201 130 135 178 195 199 212 183 182 188 197 209
5 6 359 347 341 344 351 351 352 350 338 337 336 329 324 321 327 332 336 340 333 328 329 340 342 338 11 42 331 77 66 25 1 356 358 339 327 329 8 22 7 11 27 43 14 26 27 356 55 126 136 116 155 180 139 116 89 12 117 119 355 12 295 232 184 165 161 216 235 148 338 297 235 235 251 234 173 145 154 206 212 214 221 195 184 183 202 201
353 357 356 347 340 340 340 342 346 345 336 331 330 327 322 320 325 326 331 337 332 320 323 342 334 335 44 169 287 27 2 355 352 343 347 331 331 345 358 351 333 331 354 17 338 354 20 1 59 107 60 94 159 136 58 16 55 54 332 57 94 110 284 259 174 157 171 259 311 87 268 273 275 260 257 216 166 163 185 218 223 228 222 192 178 173 192 191
338 336 342 343 339 338 336 336 339 340 336 327 323 319 317 317 318 324 326 328 329 311 309 344 345 356 63 329 288 74 349 347 331 335 342 339 344 346 313 313 302 296 303 299 310 322 318 333 35 97 26 26 75 69 31 349 358 66 55 318 323 195 266 288 231 163 176 258 79 92 233 269 287 285 266 182 166 175 196 218 229 235 201 166 168 165 180 196
337 332 335 338 337 339 337 337 339 337 335 329 322 315 313 312 314 323 323 323 327 297 287 342 349 17 88 326 322 128 313 325 326 332 336 338 344 330 317 314 294 279 271 264 285 297 299 343 32 131 136 32 81 88 41 17 341 339 139 256 279 279 294 301 290 201 170 197 291 180 240 279 281 279 208 164 180 175 196 222 235 239 144 138 155 161 176 191
345 347 347 345 342 342 342 342 341 335 331 325 317 308 304 304 308 317 324 324 323 278 255 313 335 12 100 1 355 305 299 309 318 329 330 329 335 328 324 317 312 320 286 252 267 292 292 24 25 243 80 38 131 100 44 2 315 319 15 264 265 268 292 296 299 283 159 141 258 229 215 252 271 275 245 219 208 177 197 210 172 120 104 116 137 144 155 146
359 1 358 352 348 348 347 346 344 338 333 325 313 301 298 302 306 319 343 335 314 241 215 307 354 51 70 326 344 312 316 306 311 323 330 334 332 322 312 287 305 335 337 274 252 238 321 13 92 7 4 340 69 103 99 255 225 254 265 272 287 296 280 270 277 266 147 157 257 256 252 254 272 281 269 248 226 185 192 174 137 122 108 106 111 114 116 105
11 7 0 355 351 350 350 351 354 349 348 351 339 313 305 318 325 9 14 12 22 93 126 294 22 114 261 312 332 322 311 295 307 315 331 344 330 314 296 261 271 323 6 13 297 206 114 13 29 0 316 283 220 147 184 216 183 198 220 200 240 274 276 262 259 241 155 172 252 243 255 262 276 283 290 303 268 165 161 133 123 119 110 107 99 97 97 88
14 7 359 355 350 349 355 1 8 5 3 12 7 356 355 2 20 5 7 26 61 150 177 260 337 118 301 317 328 335 323 289 302 278 347 343 323 317 323 245 340 39 177 207 254 250 93 351 294 257 246 232 211 164 171 191 155 172 204 205 242 257 272 267 261 262 158 141 258 241 249 272 277 283 298 339 49 115 131 123 122 122 113 115 106 95 92 92
10 3 356 352 347 348 357 1 10 11 9 15 17 29 88 50 36 318 332 358 288 263 223 261 260 149 300 285 326 350 354 286 319 314 352 347 326 329 355 8 28 355 262 198 216 359 61 295 258 231 219 199 147 96 97 103 86 94 207 256 282 257 262 276 246 255 262 84 270 271 294 285 278 287 304 295 133 130 141 132 129 128 120 114 106 99 98 97
4 357 352 351 348 346 351 354 1 9 13 23 37 67 119 118 121 199 253 337 294 307 307 296 316 268 271 280 339 360 29 355 334 330 354 354 7 93 326 9 32 283 289 340 350 0 15 259 246 229 180 99 56 54 69 74 91 25 253 290 290 264 274 312 358 291 322 122 273 302 321 288 283 300 323 315 142 139 140 130 133 132 120 109 105 104 102 95
359 355 355 355 355 349 344 350 358 7 17 33 50 73 104 105 134 175 131 83 290 326 349 341 4 315 313 326 342 0 27 19 313 303 354 359 3 83 357 22 357 285 323 359 167 311 314 255 246 284 77 77 4 19 73 55 27 263 235 226 269 283 313 298 304 304 264 231 269 302 306 284 293 333 7 6 95 110 99 105 110 112 110 108 111 111 104 99
358 357 358 359 4 359 348 352 5 7 15 38 53 65 83 86 132 172 132 141 291 313 273 247 241 296 321 305 327 355 0 8 230 288 351 8 337 336 130 155 3 332 302 26 113 209 253 253 280 31 49 89 314 330 75 64 322 283 219 213 250 280 285 243 276 314 309 309 312 334 325 295 325 62 57 8 63 88 82 94 89 84 96 103 100 93 89 88
0 1 1 1 5 1 354 5 17 4 358 38 49 52 65 44 341 231 78 62 337 302 261 304 326 318 310 303 303 284 238 330 249 287 346 18 352 348 35 207 56 329 275 337 13 287 264 275 44 52 20 52 130 274 245 187 275 310 241 211 217 217 303 300 331 353 0 336 335 29 2 295 330 61 115 25 71 85 84 99 97 86 88 93 87 82 81 75
1 2 2 2 1 360 2 29 1 353 348 34 17 359 22 5 348 347 64 60 350 305 344 341 339 331 322 319 289 189 93 319 258 286 350 19 349 99 50 323 28 242 266 333 346 281 282 346 53 91 67 23 44 281 258 165 132 310 242 191 180 116 357 331 4 20 6 278 273 61 97 261 314 333 202 169 113 109 90 83 88 87 84 83 83 86 81 71
1 0 2 1 358 1 13 353 345 348 347 337 330 314 290 317 333 319 37 44 350 310 10 304 297 348 313 302 332 80 351 300 306 314 342 18 343 89 98 314 356 287 267 47 352 280 300 11 23 55 77 46 29 289 270 143 126 261 230 171 95 356 324 334 61 57 230 272 300 269 165 212 299 292 221 150 121 100 74 77 84 87 86 87 89 88 83 79
2 359 2 1 357 5 12 351 350 1 334 320 322 305 278 306 314 338 82 61 339 33 36 285 293 320 294 324 19 69 290 313 25 298 284 19 348 55 51 271 209 274 280 98 290 273 267 0 292 149 74 25 221 244 276 125 133 246 224 213 285 288 265 121 98 245 250 10 322 288 152 172 276 283 293 116 112 95 90 104 103 96 96 95 93 89 81 75
3 0 2 1 1 3 357 352 359 356 333 324 328 311 298 307 326 59 82 93 332 44 215 291 332 305 336 13 9 29 357 346 35 275 318 55 3 62 44 256 169 286 300 125 218 261 288 224 210 151 118 245 232 251 313 85 215 246 218 262 325 48 158 110 140 210 30 40 274 266 182 154 280 267 136 91 105 130 144 127 112 106 103 93 88 85 72 60
2 1 360 1 7 360 348 349 357 348 338 332 325 311 308 331 57 60 45 319 5 346 245 22 352 327 14 18 340 347 19 340 315 324 358 36 2 23 82 157 85 20 331 10 233 257 300 223 180 114 162 214 211 273 34 107 232 267 40 353 358 26 60 73 129 103 52 322 256 258 210 131 318 271 177 191 178 154 148 120 104 91 85 83 80 75 63 53
359 360 359 1 7 1 352 347 344 344 340 331 324 324 2 31 62 77 40 284 349 330 346 354 329 6 30 23 319 329 0 331 329 6 358 359 6 0 24 42 29 38 11 354 314 295 339 25 349 329 259 173 89 333 330 20 358 48 56 21 4 355 24 31 359 49 75 266 262 268 240 118 174 258 192 195 127 139 141 127 109 90 83 82 77 70 59 48
356 357 358 2 5 2 3 349 340 344 338 329 331 12 73 39 27 74 289 318 348 329 354 317 311 358 7 12 327 310 336 330 339 44 5 354 31 9 21 52 354 11 357 331 330 325 332 328 296 312 328 62 84 354 329 355 26 51 57 47 32 347 355 4 326 354 182 248 249 236 56 111 225 247 175 124 111 142 146 120 110 101 94 86 78 69 50 38
353 355 356 0 3 2 3 352 344 345 335 331 347 50 75 67 31 237 294 332 353 315 349 262 301 333 346 11 352 311 331 317 330 31 341 348 52 35 11 36 34 31 300 290 346 347 330 310 321 351 328 9 100 100 323 327 23 54 75 83 86 52 359 303 286 300 267 257 244 152 71 274 274 345 170 150 125 124 104 95 102 101 97 92 80 60 40 31
350 352 351 357 3 2 360 352 346 343 334 337 34 54 57 66 284 302 324 294 277 325 340 272 315 341 17 39 321 332 8 309 326 8 349 5 42 23 342 357 11 40 176 342 351 341 319 301 295 199 284 21 92 180 175 177 214 232 196 145 141 147 157 241 242 234 261 276 286 294 256 246 241 133 181 156 103 88 83 85 88 84 86 83 67 49 37 23
346 345 345 351 359 358 355 352 348 343 338 356 66 61 69 109 273 6 311 276 301 332 314 309 359 8 6 349 307 3 32 299 334 1 356 30 47 20 347 335 338 12 60 31 321 268 201 262 249 253 313 124 204 235 149 115 322 268 173 100 155 187 158 199 221 217 246 315 312 279 243 269 82 122 142 88 72 68 67 65 65 62 60 61 52 40 32 13
341 343 341 343 355 356 353 352 348 344 348 56 69 57 125 211 260 150 221 283 320 314 318 342 32 32 349 330 333 4 22 271 333 350 338 61 84 32 41 274 302 8 77 109 296 333 6 274 254 293 319 198 185 240 21 99 286 349 74 207 232 191 132 129 270 290 20 356 282 228 180 343 49 107 59 57 58 52 47 46 51 53 54 56 51 37 24 9
344 346 334 341 354 353 350 352 349 347 12 82 82 89 186 210 180 180 247 327 300 300 16 4 354 18 358 328 318 337 352 314 336 355 329 332 49 10 351 242 239 21 104 143 273 248 193 280 272 212 280 268 185 170 316 292 170 130 213 258 263 114 92 99 291 340 14 304 267 235 184 190 170 176 67 46 48 39 33 40 42 44 56 54 44 33 17 9
349 347 342 354 354 349 350 353 349 357 48 75 75 102 141 119 154 197 310 1 319 21 59 34 293 38 38 344 298 311 346 347 338 355 333 308 5 123 138 246 220 217 269 327 302 272 164 291 296 310 246 300 4 41 326 320 0 151 208 261 1 71 327 8 116 306 327 276 282 294 268 214 204 186 88 48 42 35 26 35 36 33 46 41 28 20 9 1
357 8 0 355 354 352 351 346 349 26 66 65 58 99 88 75 292 289 231 177 32 64 65 333 299 18 21 15 289 303 343 354 318 343 0 314 339 116 127 116 266 275 316 42 176 275 357 286 291 317 1 304 358 37 304 312 342 18 5 339 15 159 189 201 180 178 203 262 277 309 327 341 317 110 113 102 63 51 35 23 24 28 38 33 17 7 359 356
10 59 337 351 358 352 342 345 9 51 70 74 108 152 64 54 281 274 222 209 70 112 93 284 322 357 328 338 341 307 327 288 277 296 230 272 332 0 93 70 352 313 331 26 74 291 356 207 264 301 332 325 325 245 197 188 175 62 52 333 298 268 202 215 240 174 148 204 245 286 300 297 345 59 113 111 81 77 65 33 25 34 37 27 10 3 359 358
31 67 318 351 0 345 345 21 38 57 83 72 55 38 37 96 293 307 269 233 97 184 171 164 174 228 272 317 322 286 308 302 255 243 248 287 8 352 4 80 33 316 339 20 20 313 347 216 255 297 316 295 268 236 187 174 173 156 159 198 192 170 106 327 289 292 109 168 195 206 266 269 53 82 109 109 103 111 86 51 40 42 32 13 5 5 1 356
59 69 308 353 359 346 21 53 2 41 90 65 31 38 20 75 58 313 305 358 38 285 34 116 180 205 215 269 294 299 327 299 254 264 276 281 0 340 313 100 327 352 78 5 308 264 186 159 269 279 268 267 275 266 186 186 184 164 178 189 163 146 127 163 260 275 327 277 203 154 232 249 160 120 120 122 119 91 65 54 48 36 18 7 4 2 357 356
66 211 298 354 352 347 59 53 335 17 62 322 354 64 0 51 40 320 342 14 28 8 11 17 179 17 241 278 0 344 334 292 231 237 311 313 314 262 274 347 345 44 88 340 310 327 323 124 297 284 281 299 311 312 307 329 101 120 271 282 149 258 127 158 207 191 169 264 247 179 257 228 179 153 126 123 117 82 57 51 47 25 9 7 1 355 357 9
54 239 278 358 360 12 92 79 0 22 2 323 32 5 346 60 84 30 7 352 349 47 23 347 345 10 327 32 66 273 292 311 280 299 321 295 291 286 312 0 22 52 74 239 311 341 304 261 357 324 321 333 346 352 338 340 33 30 299 345 86 71 85 113 95 72 41 247 185 179 249 214 176 164 119 100 93 73 56 48 41 24 12 4 356 357 10 16
35 3 283 359 23 52 104 148 138 119 37 48 49 356 351 6 330 154 137 334 344 77 40 316 345 30 323 347 17 276 266 215 251 320 6 288 296 320 307 312 97 120 243 257 249 313 257 245 301 333 307 306 311 311 298 302 316 304 307 327 342 64 122 199 340 74 226 271 165 168 251 280 321 23 32 26 22 25 22 22 24 18 8 357 357 10 16 9
66 37 313 339 21 49 62 78 99 104 111 79 50 356 17 0 305 259 92 10 359 31 49 302 343 41 3 3 3 301 284 219 229 296 340 294 283 294 275 313 106 161 234 305 344 99 75 286 231 188 213 247 259 266 271 301 302 291 295 298 288 190 134 122 93 162 199 283 299 217 300 322 338 10 16 10 12 10 2 6 11 2 356 358 10 17 5 3
78 83 3 332 348 20 24 11 36 61 86 102 95 350 8 352 324 2 49 43 349 9 37 323 20 35 337 352 359 291 290 301 260 264 293 276 268 294 319 43 55 173 93 343 154 104 73 304 259 213 233 252 256 270 285 300 287 274 281 288 268 132 113 117 169 232 199 309 289 328 1 335 334 16 18 2 8 6 355 3 2 350 351 3 18 9 359 2
69 136 172 127 20 18 20 2 23 42 30 65 107 35 13 11 6 14 349 311 3 10 25 13 7 7 292 284 314 292 307 327 299 264 286 296 309 327 338 18 10 39 68 18 338 106 113 257 252 221 262 275 272 273 278 279 271 263 281 298 277 158 149 163 210 253 51 286 273 321 345 329 338 15 8 356 1 359 356 0 352 347 356 13 10 0 357 359
71 97 298 19 100 167 204 335 29 48 30 44 69 36 34 32 11 329 287 0 358 349 42 13 310 324 315 287 233 261 283 318 305 285 293 307 310 328 326 320 320 35 64 18 312 109 127 252 258 223 275 286 284 281 281 274 270 297 348 348 348 163 166 171 182 15 21 259 279 330 328 322 23 24 349 347 359 356 358 353 346 353 8 9 358 355 355 355
99 138 237 45 54 105 323 357 44 62 34 35 48 21 39 46 5 308 306 56 346 320 20 308 275 288 297 282 225 234 234 209 249 255 249 333 308 291 269 264 308 344 10 38 292 352 96 267 302 40 310 293 288 291 303 303 292 28 24 11 18 58 59 58 54 19 5 311 320 333 320 309 44 20 342 345 1 359 357 349 345 357 11 356 348 350 351 350
112 143 136 98 51 359 5 0 56 80 37 9 22 343 353 11 316 284 292 179 192 236 209 252 279 293 307 299 266 249 236 197 222 239 226 241 262 252 248 250 349 340 334 325 299 358 88 277 339 34 4 288 282 308 324 329 20 63 32 5 11 34 27 18 5 348 352 334 321 320 315 310 340 346 340 355 4 359 354 344 339 350 0 346 339 340 344 349
102 80 77 99 78 6 15 3 29 69 58 332 349 312 316 303 289 320 351 305 227 211 204 208 256 301 326 316 291 255 227 211 229 241 228 228 252 262 255 257 252 245 253 246 285 220 128 301 325 17 328 277 283 317 322 331 25 47 359 340 353 44 23 4 347 342 4 5 327 311 310 312 327 340 345 354 356 353 347 334 331 340 344 337 339 345 349 355